Regional Weather Roundup
Issued by NWS

Home | Current Version | Previous Version | Text Only | Print | Product List | Glossary On
Versions: 1 2 3 4 5 6 7 8 9 10 11 12 13 14 15 16 17 18 19 20 21 22 23 24 25 26 27 28 29 30 31 32 33 34 35 36 37 38 39 40 41 42 43 44 45 46 47 48 49 50
000
ASUS43 KMKX 272211
RWRWI

WISCONSIN REGIONAL WEATHER ROUNDUP
NATIONAL WEATHER SERVICE MILWAUKEE/SULLIVAN WI
500 PM CDT SUN JUL 27 2014

NOTE: "FAIR" INDICATES FEW OR NO CLOUDS BELOW 12,000 FEET WITH NO
SIGNIFICANT WEATHER AND/OR OBSTRUCTIONS TO VISIBILITY.

WIZ001-002-006>008-014>016-023>028-272300-
NORTHWEST WISCONSIN

CITY           SKY/WX    TMP DP  RH WIND       PRES   REMARKS
SUPERIOR ARPT  CLOUDY    60  54  80 N6        30.05R
ASHLAND        CLOUDY    61  52  72 NE6       30.03R
HAYWARD        CLOUDY    61  53  75 NE14G21   30.03R
SIREN          CLOUDY    66  56  69 NE9       30.03R
RICE LAKE      CLOUDY    66  55  68 N14G22    30.00R
LADYSMITH      CLOUDY    65  56  73 N17G24    29.98R
EAU CLAIRE     MOSUNNY   73  59  61 N15G25    29.92R
MENOMONIE      PTCLDY    74  56  52 N20G25    29.93R
NEW RICHMOND   PTSUNNY   69  60  72 N9G17     29.98R
OSCEOLA        CLOUDY    70  64  80 N8G18     30.01R
$$

WIZ003>005-009-010-017-018-272300-
NORTH CENTRAL WISCONSIN

CITY           SKY/WX    TMP DP  RH WIND       PRES   REMARKS
WOODRUFF       CLOUDY    62  56  81 N17G23    29.96R
RHINELANDER    CLOUDY    60  56  86 N10G20    29.93R
EAGLE RIVER    CLOUDY    60  52  74 N9        29.94R
LAND O LAKES   CLOUDY    61  51  70 N14G22    29.96R
PHILLIPS       CLOUDY    60  56  88 N9G17     29.96R
TOMAHAWK       CLOUDY    65  57  75 N7        29.93R
MEDFORD        CLOUDY    66  59  79 N16       29.91R
MERRILL        LGT RAIN  65  62  91 N13G18    29.89R
$$

WIZ029-030-035-036-043>047-272300-
CENTRAL WISCONSIN

CITY           SKY/WX    TMP DP  RH WIND       PRES   REMARKS
WAUSAU         CLOUDY    67  59  75 N10G21    29.86R
MOSINEE        PTSUNNY   72  57  60 N16G23    29.87R
MARSHFIELD     PTSUNNY   73  59  61 N16G32    29.87R
STEVENS POINT  CLOUDY    71  59  65 N14G22    29.84R
WAUPACA        PTSUNNY   71  65  82 N10       29.81R
WAUTOMA        PTSUNNY   74  59  59 N14G23    29.82R
WISC RAPIDS      N/A     70  63  78 MISG      29.85R
CAMP DOUGLAS   LGT RAIN  68  63  83 N16       29.86R
$$

WIZ011>013-019>022-031-037>040-048>050-272300-
NORTHEAST WISCONSIN

CITY           SKY/WX    TMP DP  RH WIND       PRES   REMARKS
ANTIGO         CLOUDY    64  60  85 N18G24    29.88R
STURGEON BAY   CLOUDY    63  57  82 N24G35    29.78R
GREEN BAY      CLOUDY    69  62  78 N13G21    29.79R
MANITOWOC      CLOUDY    70  59  68 N18G25    29.75R
APPLETON       PTSUNNY   68  63  83 N17G24    29.79R
CLINTONVILLE   CLOUDY    72  59  64 N14       29.80R
OSHKOSH        PTSUNNY   69  61  75 N14G23    29.78R
$$

WIZ032>034-041-042-053>061-272300-
SOUTHWEST WISCONSIN

CITY           SKY/WX    TMP DP  RH WIND       PRES   REMARKS
LA CROSSE      MOSUNNY   76  60  57 NW17      29.87R
SPARTA         PTSUNNY   75  57  54 NW15G25   29.88R
VIROQUA        MOCLDY    73  60  63 NW15      29.89R
BOSCOBEL       CLOUDY    77  58  51 NW10G21   29.87R
PRAIRIE DU CHI PTSUNNY   76  55  48 NW13G25   29.88R
PLATTEVILLE    FAIR      76  57  51 NW17G28   29.87R
$$

WIZ056-057-062-063-064-067-068-272300-
SOUTH CENTRAL WISCONSIN

CITY           SKY/WX    TMP DP  RH WIND       PRES   REMARKS
BARABOO/DELLS  SUNNY     74  60  61 NW12G20   29.82S
LONE ROCK      SUNNY     77  59  53 NW18G32   29.85R
WATERTOWN      MOSUNNY   73  59  61 NW13G20   29.78R
MADISON        PTSUNNY   73  59  61 W10G21    29.81S
MIDDLETON      MOCLDY    71  62  73 NW13G18   29.83R
MONROE         MOSUNNY   73  55  53 NW20G26   29.83R
JANESVILLE     MOSUNNY   75  59  57 NW16      29.80R
$$

WIZ051-052-058>065-066-070>072-272300-
SOUTHEAST WISCONSIN

CITY           SKY/WX    TMP DP  RH WIND       PRES   REMARKS
MILWAUKEE      MOSUNNY   77  57  50 NW21G28   29.74R
WAUKESHA       MOSUNNY   72  57  60 NW16G23   29.77R
MILWAUKEE/TIMM CLOUDY    75  55  50 NW21G30   29.75R
RACINE         MOSUNNY   77  56  48 NW14G29   29.76R
BURLINGTON     MOSUNNY   72  56  58 NW17G29   29.77R
KENOSHA        PTSUNNY   76  57  51 NW20G25   29.75R
FOND DU LAC    LGT RAIN  67  61  81 NW12      29.78R
SHEBOYGAN      CLOUDY    70  63  78 N6        29.74S
WEST BEND      PTSUNNY   68  61  77 W7        29.76S
JUNEAU         MOSUNNY   72  57  59 W9        29.78S
$$

LSZ147-162-272300-
LAKE SUPERIOR

STATION/POSITION TIME  TEMP    WIND        PRES    WAVE
                       AIR SEA DIR/SP/G            HT/PER
                 (UTC) (F)     (DEG/KT/KT) (MB)    (FT/S)
W MID LAKE BUOY  2150   49 42  270/  6/  6 1015.4R   1/ 4
PORT WING        2140   60      30/  5/  9 1016.6R
SAXON HARBOR     2100           40/ 10/ 13 1015.9
$$

LMZ867-665-643>646-272300-
LAKE MICHIGAN

STATION/POSITION TIME  TEMP    WIND        PRES    WAVE
                       AIR SEA DIR/SP/G            HT/PER
                 (UTC) (F)     (DEG/KT/KT) (MB)    (FT/S)
N MID LAKE BUOY  2150   60 56  360/ 17/ 19 1006.6R
NORTHPORT PIER   2100   63     340/ 25/ 30 1007.5R
KEWAUNEE LAKESHO 2100   60      20/  5/  9 1007.4S
SHEBOYGAN LAKESH 2200   65      10/ 11/ 12 1007.2F
PORT WASHINGTON  2100   69     330/  6/ 22 1007.5
ATWATER BUOY     2200   58     330/ 10     1008.2R
MILWAUKEE LAKESH 2100   73     300/ 11/ 19   N/A
S MID LAKE BUOY  2150   64 62  310/ 10/ 12 1006.3R   2/ 4
KENOSHA   LAKESH 2200   76     300/ 13/ 26 1006.8R
$$

TC  - TEMPERATURE IN CELSIUS
VSB - VISIBILITY IN STATUTE MILES
WCI - WIND CHILL INDEX
HX  - HEAT INDEX




USA.gov is the U.S. government's official web portal to all federal, state and local government web resources and services.